Location: Gipe Farm
(40.9466°N, 95.5370°W)
Time: 16:46:54
(UTC-05:00)

Daily predictions for brighter satellites

Satellite Brightness Start Highest point End
(mag) Time Altitude Azimuth Time Altitude Azimuth Time Altitude Azimuth
Cosmos 1184 Rocket 3.6 19:36:59 10° NNW 19:40:20 59° W 19:43:39 10° S
Meteor 2-5 Rocket 4.0 19:41:27 10° N 19:47:08 48° ENE 19:52:39 10° SSE
Cosmos 1656 Rocket 4.1 19:42:55 10° N 19:48:18 42° ENE 19:53:34 10° SE
FENGYUN 3A 3.6 19:43:53 10° SSE 19:49:11 68° ENE 19:54:32 10° N
COSMO-SKYMED 1 3.3 19:45:44 10° N 19:50:02 61° WNW 19:54:18 10° SSW
Cosmos 2181 Rocket 4.0 19:47:02 10° N 19:53:14 71° E 19:59:19 10° SSE
Lacrosse 5 4.0 19:50:04 10° WNW 19:54:15 26° WSW 19:58:23 10° S
Cosmos 1766 4.4 19:51:38 10° SE 19:54:41 22° E 19:57:44 10° NE
COSMOS 2406 3.9 19:50:11 10° SSE 19:55:04 30° ESE 20:00:01 10° NE
Thor Agena Rocket 3.6 19:51:19 10° NNE 19:56:34 66° ESE 20:01:42 10° S
Cosmos 1707 2.7 19:52:42 10° N 19:56:36 63° E 20:00:30 10° SSE
Cosmos 1758 Rocket 3.6 19:52:29 10° N 19:57:00 81° E 20:01:29 10° S
BREEZE M DEB (TANK) 3.9 19:48:09 10° WNW 19:57:23 56° NNE 20:00:22 12° E
NOAA 12 4.2 19:52:24 10° SSE 19:57:38 86° WSW 20:02:56 10° NNW
Cosmos 2369 Rocket 3.6 19:53:09 10° NW 19:58:24 41° WSW 20:03:36 10° S
Cosmos 371 Rocket 4.1 19:54:48 10° SSW 19:59:34 56° WNW 20:04:24 10° N
Cosmos 1726 Rocket 3.5 19:57:42 10° S 20:02:05 88° E 20:06:26 10° N
FengYun 1-2 T 4.3 19:58:27 10° SSE 20:03:56 58° ENE 20:09:23 10° N
Cosmos 2074 Rocket 4.1 20:02:19 10° SSE 20:08:15 50° E 20:14:13 10° NNE
Cosmos 1378 3.1 20:07:59 10° N 20:11:47 88° ENE 20:15:33 10° S
Cosmos 1544 3.9 20:09:39 10° SSE 20:12:46 28° E 20:15:53 10° NNE
Cosmos 1271 Rocket 4.5 20:10:22 10° SW 20:13:51 36° WNW 20:17:26 10° N
Cosmos 2084 3.4 20:11:51 10° SW 20:15:56 75° NW 20:19:51 10° NNE
Cosmos 1340 Rocket 4.1 20:18:46 10° NNW 20:22:39 44° W 20:26:31 10° SSW
Cosmos 990 Rocket 4.4 20:19:28 10° NNW 20:24:35 63° WSW 20:29:38 10° S
Cosmos 1125 Rocket 3.9 20:24:06 10° N 20:29:08 42° ENE 20:32:25 20° SE
Cosmos 1805 3.9 20:26:05 10° SSE 20:29:34 32° E 20:33:04 10° NNE
Resurs 01 Rocket 2.0 20:28:06 17° SE 20:31:04 41° ENE 20:35:14 10° N
Cosmos 2228 3.4 20:26:47 10° SSW 20:31:07 66° W 20:35:28 10° N
FALCON 9 R/B 2.4 20:29:09 10° WSW 20:31:58 37° SSE 20:34:47 22° ESE
CZ-2D R/B 3.3 20:32:58 18° SSE 20:35:40 56° ENE 20:39:24 10° N
GP-B 3.6 20:32:07 10° NNE 20:36:16 38° E 20:38:38 21° SE
Nadezhda 3 Rocket 4.4 20:30:43 10° N 20:36:39 42° ENE 20:40:53 18° SE
ISS -1.7 20:35:17 10° S 20:36:16 15° SSE 20:36:16 15° SSE
Envisat 3.4 20:34:58 21° SE 20:37:54 41° ENE 20:42:40 10° N
Cosmos 372 Rocket 4.3 20:33:12 10° N 20:38:15 45° ENE 20:40:49 26° ESE
USA 186 3.6 20:42:35 13° NNE 20:42:35 13° NNE 20:42:58 10° N
Cosmos 1812 Rocket 3.8 20:36:33 10° SSE 20:40:49 47° E 20:45:08 10° NNE
Cosmos 2184 Rocket 4.0 20:38:33 10° S 20:44:52 87° W 20:51:16 10° N
Cosmos 2058 Rocket 4.4 20:41:10 10° SSW 20:45:18 42° WNW 20:49:28 10° N
Cosmos 304 Rocket 4.3 20:40:44 10° SSW 20:45:27 60° WNW 20:50:14 10° NNE
ORS 1 (USA 231) 4.5 20:43:55 10° W 20:46:49 59° S 20:46:59 58° S
Meteor 2-8 Rocket 4.3 20:43:31 10° N 20:49:40 75° E 20:55:45 10° SSE
Cosmos 1610 Rocket 4.4 20:45:26 10° S 20:51:46 76° E 20:58:10 10° N
Meteor 1-24 Rocket 4.0 20:46:43 10° NNW 20:52:41 77° W 20:58:27 10° S
SJ-6B 3.9 20:49:29 10° S 20:53:20 45° W 20:57:09 10° NNW
Cosmos 1356 Rocket 4.3 20:49:47 10° NNW 20:53:59 53° W 20:58:09 10° S
Cosmos 1943 Rocket 4.5 20:51:02 10° NW 20:55:18 23° W 20:59:36 10° SSW
Cosmos 1953 3.8 20:58:27 24° NE 20:58:27 24° NE 21:00:20 10° NNE
ATLAS 2AS CENTAUR R/B 4.0 20:53:04 10° NNW 21:00:04 31° NE 21:02:57 25° ENE
Meteor 2-19 Rocket 4.3 20:55:41 10° S 21:01:42 79° E 21:07:46 10° N
Okean 3 Rocket 4.5 21:00:04 10° N 21:03:17 32° NE 21:03:17 32° NE
NOSS 3-1 (A) 4.2 21:02:00 10° NW 21:09:42 74° WSW 21:15:47 21° SSE
Cosmos 1697 Rocket 4.2 21:06:01 10° N 21:09:50 19° NE 21:09:50 19° NE
Cosmos 1980 Rocket 4.2 21:08:19 10° NNE 21:10:25 12° NE 21:10:25 12° NE
SJ-11-01 4.3 21:14:45 58° ENE 21:14:47 58° ENE 21:19:26 10° N
Cosmos 540 Rocket 4.0 21:13:15 10° SSW 21:18:17 58° WNW 21:23:20 10° NNE
Cosmos 1900 4.2 21:14:48 10° SSW 21:19:51 76° ESE 21:22:28 30° NE
Milstar 3 Cent rocket 3.8 21:20:36 10° SW 21:22:32 16° SSW 21:22:32 16° SSW
Cosmos 962 Rocket 4.4 21:21:44 10° S 21:28:04 82° E 21:34:28 10° N
ATLAS CENTAUR R/B 4.0 21:21:00 10° NW 21:31:22 39° WSW 21:33:56 23° SSW
Cosmos 1758 4.3 21:40:20 45° NW 21:40:20 45° NW 21:43:44 10° N
ARGOS 4.5 21:42:44 27° NNE 21:42:44 27° NNE 21:45:43 10° N
Meteor 1-21 Rocket 4.4 21:44:06 10° NNW 21:49:48 69° W 21:50:34 61° SW
Cosmos 1939 Rocket 4.4 21:51:56 32° NW 21:51:56 32° NW 21:54:26 10° NNW
Cosmos 2369 4.0 21:49:10 10° NNW 21:53:51 58° N 21:53:51 58° N
Cosmos 2341 Rocket 4.5 21:54:37 10° SSW 22:00:41 58° W 22:06:50 10° N
Resurs 01 Rocket 4.1 22:05:41 14° SW 22:07:43 18° W 22:10:42 10° NW
ERS-1 Rocket 4.4 22:11:52 31° N 22:11:52 31° N 22:14:28 10° N
BREEZE-M DEB (TANK) 4.0 22:09:29 10° W 22:15:15 42° WNW 22:15:15 42° WNW
H-2A R/B 4.1 22:30:21 19° N 22:30:21 19° N 22:31:47 10° N
ATLAS 2AS CENTAUR R/B 3.3 22:43:57 10° NW 22:50:24 60° NW 22:50:24 60° NW
Cosmos 1697 Rocket 4.4 22:48:56 10° NNW 22:51:34 28° NW 22:51:34 28° NW
Cosmos 1980 Rocket 4.1 22:50:01 10° NNW 22:52:11 24° NNW 22:52:11 24° NNW
